STARLINK-1331 (45578 NORAD) Tracking and Keplerian Element Data

This shows tracking and keplerian element data for the satellite.

Feedback or suggestion? Click here.




ElementValue
Catalog45578
NameSTARLINK-1331
Epoch Orbit177
Epoch Day148.91667824
Epoch Year2020
RAAN226.1979
Inclination52.998
Eccentricity0.0001249
Argument of Perigee87.871
Mean Anonmoly136.0931
Mean Motion15.62726126
Decay Rate-0.00022022
L11 45578U 20025AZ 20148.91667824 -.00022022 00000-0 -23556-3 0 9990
L22 45578 52.9980 226.1979 0001249 87.8710 136.0931 15.62726126 1773

Live tracking and technical data element details for STARLINK-1331 (NORAD 45578). STARLINK-1331 can be tracked NOW for your location showing map with azimuth and elevation plus other details from your city location.

Track the satellite on the map from your city or location and see movement details for azimuth, elevation, latitude, longitude, range, height, and movement on the map or in text.







IsCatalogInMostPopularTable: catalog: 45578, numindb: 10
Update: records affected: 1



GetName: 45578 STARLINK-1331

Hit Count: updated at: Sat, 30 May 2020 14:50:08 GMT